CAPE
1527 1581 1684 1878 1963 2229 2031 2296 2647 2679 2924 3047 2741 2964 2681 3005 3174 3581 3651 3352 3805 3916 3658 3253 3346 3014 2141 1546 1788 2064 2163 1967 1859 1502 2383 3049 3030 2686 1951 1271 1227 1104 759
1481 1894 1694 2035 2045 2178 2298 2236 2634 2953 2957 3079 3087 3328 3137 3196 2763 2988 3511 3189 3279 3152 2565 2863 2597 1899 1668 1469 1234 1043 1156 1914 1471 2361 3724 3480 3095 2899 2603 2422 1775 1347 1228
1767 2287 2619 2715 2421 2190 1896 1773 1852 1742 1713 1814 1855 2268 2415 1919 1552 1300 1710 1995 2102 1894 1595 1471 1319 1036 964 824 698 511 817 1148 2206 2523 3644 4483 2917 2548 2645 2275 2145 1967 1604
2448 2232 1946 1786 1363 1098 768 812 786 690 680 1000 698 695 1049 970 925 668 663 845 849 748 933 1077 991 849 788 910 642 351 367 320 375 515 721 817 1394 1865 2114 1625 1607 1643 1481
1696 1579 1772 1614 1326 1022 612 641 697 644 838 474 342 354 378 457 550 282 301 488 650 715 647 522 349 308 52 52 67 95 171 15 13 47 37 168 515 619 1190 683 897 769 1634
659 681 712 994 1146 973 724 459 120 102 222 263 117 29 36 36 96 99 55 67 50 55 85 69 40 25 7 0 4 0 0 6 0 0 0 8 1004 462 408 542 359 316 665
228 229 2 92 16 109 262 115 128 7 5 85 113 6 0 15 31 32 61 92 83 40 10 12 11 0 0 0 4 0 0 0 0 36 53 64 268 449 1059 859 1027 956 1058
204 195 158 293 238 90 125 9 3 1 1 10 22 55 31 48 5 2 20 28 35 38 10 0 0 0 0 0 0 0 0 1 0 8 283 633 601 643 692 713 950 778 759
409 421 293 347 452 320 63 4 1 1 3 0 3 9 0 3 13 13 22 0 0 0 0 0 0 0 0 0 0 0 0 0 0 0 16 16 0 0 18 126 60 2 71
52 61 43 20 16 3 0 105 72 53 23 34 18 39 56 32 11 0 0 0 0 0 0 0 0 0 0 0 0 0 0 0 0 86 179 97 71 62 2 231 245 62 88
14 3 2 10 9 23 37 43 26 1 0 0 0 0 0 0 0 0 0 0 0 0 0 0 0 0 0 0 0 0 0 0 0 0 0 23 51 52 60 322 759 734 727
15 4 0 12 39 35 60 27 6 18 71 31 0 0 0 0 0 0 0 0 0 0 0 0 0 0 0 0 0 0 0 0 0 0 0 1 17 32 47 72 180 453 532
3 1 6 13 9 11 25 8 32 0 1 0 0 0 0 0 0 0 0 0 0 0 11 3 0 0 0 0 0 0 0 0 0 1 0 2 6 12 89 308 374 1015 564
0 1 0 0 0 3 1 2 0 0 0 0 0 0 0 0 0 0 14 14 8 7 7 3 0 0 0 0 0 2 4 18 18 20 16 13 13 14 25 35 68 85 77
0 0 0 0 0 0 0 0 0 0 0 0 0 2 0 3 6 0 0 8 16 4 0 0 3 8 19 31 35 37 37 34 34 30 31 29 25 30 36 40 30 51 161
0 0 0 0 0 0 0 0 0 0 0 0 0 0 6 2 0 0 0 0 0 0 0 0 0 6 22 25 20 34 43 47 51 58 58 42 39 42 42 51 52 117 70
0 0 0 0 0 0 0 0 0 0 0 0 0 0 0 0 0 0 0 0 0 0 0 8 11 17 7 2 1 3 18 23 26 12 56 40 95 71 85 39 93 160 124
0 0 1 9 15 12 9 6 3 6 7 11 1 0 0 0 0 0 0 0 1 1 6 17 17 34 27 23 21 9 0 0 23 36 23 19 23 46 136 174 211 240 264
7 8 5 15 26 7 27 36 24 30 39 40 41 23 8 10 1 0 5 6 18 29 30 33 60 63 48 41 34 26 58 49 35 60 54 19 36 39 13 49 243 39 40
42 0 0 6 29 44 35 30 29 21 24 36 34 48 38 58 67 45 37 48 42 32 45 21 22 31 69 79 79 20 19 29 70 23 9 10 54 92 44 13 65 414 359
38 49 64 40 50 24 42 37 40 46 72 92 95 46 23 52 30 34 28 38 46 63 99 73 0 0 0 0 3 4 5 7 10 11 12 14 21 75 95 34 34 178 543
47 60 55 48 61 63 99 42 35 94 77 64 106 84 33 37 55 48 53 0 0 0 0 0 4 6 6 7 8 6 4 15 6 5 0 3 8 13 14 12 69 97 73
27 40 48 60 120 74 80 79 85 88 101 124 118 65 41 43 44 27 37 0 0 0 2 2 9 1 5 2 1 20 10 12 4 8 1 1 4 2 5 16 13 15 14
24 34 44 50 34 64 112 88 109 40 100 150 93 40 27 22 21 27 45 0 0 0 8 0 2 3 0 0 1 7 3 2 4 8 8 10 7 0 0 10 5 12 23
36 38 43 33 56 141 243 88 168 205 178 82 42 26 26 18 13 31 0 0 1 0 8 1 3 0 0 0 0 1 1 1 4 2 3 6 6 1 8 0 8 1 8
42 51 62 63 70 269 403 424 499 288 124 73 43 33 32 21 15 13 4 0 0 0 0 0 0 0 0 0 0 2 3 3 4 4 2 1 0 0 0 0 0 5 4
CIN
-74 -46 -41 -35 -37 -35 -24 -9 -1 -2 -0 -1 -0 -0 -0 -0 -0 -0 -0 -0 -0 -0 -0 -0 -0 -0 -9 -18 -12 -4 -0 -0 -1 -5 -0 -0 -18 -44 -15 -93 -104 -85 -107
-86 -56 -65 -64 -56 -51 -23 -8 -4 -2 -15 -6 -5 -1 -0 -0 -15 -14 -0 -0 -2 -2 -25 -6 -15 -31 -46 -43 -57 -70 -29 -0 -1 -0 -0 -0 -6 -23 -26 -6 -41 -39 -40
-114 -70 -58 -64 -73 -69 -86 -83 -58 -59 -66 -40 -29 -5 -3 -17 -46 -72 -52 -34 -30 -38 -60 -63 -85 -118 -117 -106 -135 -159 -81 -44 -1 -0 -0 -0 -0 -7 -6 -19 -21 -22 -20
-48 -100 -126 -133 -159 -160 -122 -98 -87 -78 -68 -137 -157 -108 -30 -52 -72 -99 -100 -92 -109 -141 -138 -111 -121 -142 -128 -86 -113 -151 -121 -131 -76 -64 -40 -46 -24 -2 -6 -11 -10 -17 -28
-34 -50 -88 -106 -129 -169 -228 -228 -208 -239 -207 -320 -119 -339 -148 -52 -55 -100 -143 -109 -105 -81 -114 -182 -195 -231 -310 -348 -269 -191 -159 -34 -31 -113 -132 -108 -42 -30 -22 -61 -37 -47 -10
-1 -2 -18 -62 -99 -112 -147 -189 -299 -204 -145 -157 -142 -323 -256 -35 -24 -30 -63 -75 -140 -106 -94 -77 -74 -44 -30 -0 -40 -0 -0 -430 -3 -4 -0 -92 -35 -87 -90 -70 -98 -107 -67
-64 -206 -9 -5 -40 -166 -193 -55 -51 -26 -174 -193 -98 -19 -0 -36 -78 -58 -65 -81 -83 -85 -53 -50 -27 -0 -0 -0 -34 -0 -0 -0 -0 -259 -275 -257 -151 -77 -4 -17 -4 -5 -0
-209 -172 -50 -21 -58 -154 -221 -12 -207 -100 -119 -318 -180 -45 -11 -10 -26 -63 -69 -70 -33 -49 -18 -0 -0 -0 -0 -0 -0 -0 -0 -51 -0 -93 -73 -48 -34 -33 -17 -11 -3 -0 -15
-47 -2 -20 -35 -12 -35 -120 -53 -49 -21 -291 -0 -92 -144 -22 -124 -16 -39 -46 -0 -0 -0 -0 -0 -0 -0 -0 -0 -0 -0 -0 -0 -0 -0 -244 -228 -0 -0 -23 -105 -141 -0 -143
-112 -80 -61 -59 -91 -47 -0 -99 -127 -133 -99 -47 -23 -7 -7 -31 -52 -0 -0 -0 -0 -0 -0 -0 -0 -0 -0 -0 -0 -0 -0 -0 -0 -112 -53 -144 -144 -133 -15 -53 -23 -109 -88
-136 -86 -38 -46 -63 -34 -24 -29 -36 -19 -0 -0 -0 -0 -0 -0 -0 -0 -0 -0 -0 -0 -0 -0 -0 -0 -0 -0 -0 -0 -0 -0 -0 -0 -0 -73 -94 -82 -95 -17 -3 -0 -0
-69 -45 -0 -11 -15 -18 -19 -45 -65 -44 -7 -23 -13 -0 -0 -0 -0 -0 -0 -0 -0 -0 -0 -0 -0 -0 -0 -0 -0 -0 -0 -0 -0 -0 -0 -0 -31 -105 -61 -56 -50 -5 -0
-85 -17 -13 -14 -9 -18 -14 -25 -31 -2 -4 -0 -0 -0 -0 -0 -0 -0 -0 -0 -0 -0 -0 -4 -0 -0 -0 -0 -0 -0 -0 -0 -0 -0 -0 -0 -0 -0 -88 -15 -1 -0 -0
-0 -0 -0 -0 -0 -2 -4 -1 -0 -0 -0 -0 -0 -0 -0 -0 -0 -0 -0 -4 -1 -1 -0 -0 -0 -0 -0 -0 -0 -0 -0 -0 -0 -0 -0 -0 -0 -0 -0 -0 -96 -96 -106
-0 -0 -0 -0 -0 -0 -0 -0 -0 -0 -0 -0 -0 -0 -0 -0 -7 -0 -0 -0 -2 -3 -0 -0 -0 -0 -0 -0 -0 -0 -0 -0 -0 -0 -0 -0 -0 -0 -0 -0 -0 -0 -57
-0 -0 -0 -0 -0 -0 -0 -0 -0 -0 -0 -0 -0 -0 -0 -3 -0 -0 -0 -0 -0 -0 -0 -0 -0 -0 -0 -0 -0 -0 -0 -1 -0 -0 -0 -0 -0 -127 -158 -102 -100 -61 -79
-0 -0 -0 -0 -0 -0 -0 -0 -0 -0 -0 -0 -0 -0 -0 -0 -0 -0 -0 -0 -0 -0 -0 -0 -0 -1 -5 -4 -0 -0 -0 -0 -0 -0 -0 -2 -92 -101 -73 -141 -51 -19 -41
-0 -0 -0 -0 -0 -0 -0 -0 -0 -0 -0 -0 -0 -0 -0 -0 -0 -0 -0 -0 -0 -0 -10 -0 -0 -0 -0 -0 -0 -0 -0 -0 -0 -0 -0 -0 -0 -0 -36 -7 -1 -2 -1
-0 -0 -0 -0 -0 -0 -0 -0 -0 -0 -0 -0 -0 -2 -7 -54 -3 -0 -7 -25 -3 -0 -0 -0 -0 -0 -0 -0 -0 -0 -0 -0 -0 -0 -0 -0 -0 -0 -0 -0 -4 -77 -21
-0 -0 -0 -0 -0 -0 -0 -0 -0 -0 -0 -1 -0 -1 -0 -26 -2 -0 -0 -6 -3 -1 -0 -1 -0 -0 -0 -0 -0 -0 -0 -0 -0 -0 -0 -0 -0 -0 -0 -0 -3 -0 -0
-0 -0 -5 -0 -0 -0 -0 -0 -1 -0 -0 -1 -1 -4 -5 -0 -0 -1 -0 -0 -0 -1 -0 -0 -0 -0 -0 -0 -0 -0 -0 -0 -0 -0 -0 -0 -0 -0 -0 -0 -0 -16 -0
-0 -0 -0 -0 -1 -1 -1 -0 -0 -0 -0 -0 -0 -0 -13 -1 -0 -0 -0 -0 -0 -0 -0 -0 -0 -1 -0 -2 -0 -0 -0 -0 -0 -0 -0 -0 -0 -0 -0 -0 -0 -0 -8
-0 -0 -0 -0 -0 -7 -7 -1 -1 -0 -0 -0 -0 -0 -0 -0 -0 -0 -0 -0 -0 -0 -2 -5 -0 -0 -0 -0 -2 -0 -0 -0 -0 -0 -0 -0 -0 -0 -0 -0 -0 -0 -0
-0 -0 -0 -0 -0 -0 -8 -0 -3 -1 -1 -0 -0 -0 -0 -0 -0 -0 -0 -0 -0 -0 -0 -0 -0 -1 -0 -2 -0 -2 -0 -2 -1 -3 -1 -3 -2 -0 -0 -0 -0 -0 -0
-0 -0 -0 -0 -0 -3 -0 -1 -7 -13 -11 -0 -0 -0 -0 -0 -0 -0 -0 -0 -0 -0 -0 -0 -0 -0 -0 -0 -0 -0 -0 -0 -0 -0 -3 -0 -1 -0 -0 -0 -0 -0 -0
-0 -10 -13 -0 -22 -0 -0 -0 -0 -3 -0 -0 -0 -0 -0 -0 -0 -0 -0 -0 -0 -0 -0 -0 -0 -0 -0 -0 -0 -0 -0 -0 -0 -7 -11 -2 -0 -0 -0 -0 -0 -0 -0
Wind_Speed
25 30 33 32 30 27 28 29 23 24 23 21 18 20 18 16 14 14 11 15 12 10 13 12 12 13 13 16 18 22 21 23 22 30 31 26 24 24 26 34 33 31 30
23 29 30 30 30 28 26 29 26 31 28 25 22 20 21 21 21 19 17 20 17 15 13 14 16 17 20 20 22 17 17 14 28 31 28 24 27 27 28 30 36 35 33
25 27 30 33 32 32 34 35 35 37 36 34 29 26 26 27 26 27 25 23 21 21 21 22 20 18 20 23 23 20 19 18 17 6 30 25 27 30 32 32 34 33 32
25 28 30 31 34 35 37 38 39 40 40 47 41 34 34 31 32 29 29 27 26 26 24 25 21 24 23 24 20 18 18 15 11 16 19 24 28 33 35 33 33 37 32
24 30 30 33 33 35 39 42 39 37 39 45 48 48 47 37 36 35 31 31 33 28 26 27 27 30 nan nan nan nan 22 nan nan nan nan 28 32 35 35 35 35 38 34
50 37 33 32 39 35 40 44 46 42 42 53 52 nan nan nan nan nan nan nan nan nan nan nan nan nan nan nan nan nan nan nan nan nan nan nan 32 34 37 39 38 38 37
41 57 nan nan nan 25 41 47 50 nan nan nan 37 nan nan nan nan nan nan nan nan nan nan nan nan nan nan nan nan nan nan nan nan nan nan nan 33 36 37 38 37 37 36
36 34 36 35 36 nan 41 nan nan nan nan nan nan nan nan nan nan nan nan nan nan nan nan nan nan nan nan nan nan nan nan nan nan nan 35 35 37 39 40 39 37 36 36
35 36 35 36 34 40 nan nan nan nan nan nan nan nan nan nan nan nan nan nan nan nan nan nan nan nan nan nan nan nan nan nan nan nan nan nan nan nan nan 40 nan nan nan
nan nan nan nan nan nan nan 41 nan nan nan nan nan nan nan nan nan nan nan nan nan nan nan nan nan nan nan nan nan nan nan nan nan nan 40 nan nan nan nan 40 37 nan nan
nan nan nan nan nan nan nan nan nan nan nan nan nan nan nan nan nan nan nan nan nan nan nan nan nan nan nan nan nan nan nan nan nan nan nan nan nan nan nan 45 42 43 40
nan nan nan nan nan nan nan nan nan nan nan nan nan nan nan nan nan nan nan nan nan nan nan nan nan nan nan nan nan nan nan nan nan nan nan nan nan nan nan nan 44 40 41
nan nan nan nan nan nan nan nan nan nan nan nan nan nan nan nan nan nan nan nan nan nan nan nan nan nan nan nan nan nan nan nan nan nan nan nan nan nan nan 43 38 37 38
nan nan nan nan nan nan nan nan nan nan nan nan nan nan nan nan nan nan nan nan nan nan nan nan nan nan nan nan nan nan nan nan nan nan nan nan nan nan nan nan nan nan nan
nan nan nan nan nan nan nan nan nan nan nan nan nan nan nan nan nan nan nan nan nan nan nan nan nan nan nan nan nan nan nan nan nan nan nan nan nan nan nan nan nan nan 38
nan nan nan nan nan nan nan nan nan nan nan nan nan nan nan nan nan nan nan nan nan nan nan nan nan nan nan nan nan nan nan nan nan nan nan nan nan nan nan nan nan 36 nan
nan nan nan nan nan nan nan nan nan nan nan nan nan nan nan nan nan nan nan nan nan nan nan nan nan nan nan nan nan nan nan nan nan nan nan nan nan nan nan nan nan 32 29
nan nan nan nan nan nan nan nan nan nan nan nan nan nan nan nan nan nan nan nan nan nan nan nan nan nan nan nan nan nan nan nan nan nan nan nan nan nan 33 28 28 29 28
nan nan nan nan nan nan nan nan nan nan nan nan nan nan nan nan nan nan nan nan nan nan nan nan nan nan nan nan nan nan nan nan nan nan nan nan nan nan nan nan 24 nan nan
nan nan nan nan nan nan nan nan nan nan nan nan nan nan nan nan nan nan nan nan nan nan nan nan nan nan nan nan nan nan nan nan nan nan nan nan nan nan nan nan nan 23 24
nan nan nan nan nan nan nan nan nan nan nan nan nan nan nan nan nan nan nan nan nan nan nan nan nan nan nan nan nan nan nan nan nan nan nan nan nan nan nan nan nan 28 28
nan nan nan nan nan nan nan nan nan nan nan nan 38 nan nan nan nan nan nan nan nan nan nan nan nan nan nan nan nan nan nan nan nan nan nan nan nan nan nan nan nan nan nan
nan nan nan nan 33 nan nan nan nan nan 39 35 38 nan nan nan nan nan nan nan nan nan nan nan nan nan nan nan nan nan nan nan nan nan nan nan nan nan nan nan nan nan nan
nan nan nan nan nan nan 30 nan 31 nan 31 31 nan nan nan nan nan nan nan nan nan nan nan nan nan nan nan nan nan nan nan nan nan nan nan nan nan nan nan nan nan nan nan
nan nan nan nan nan 37 31 nan 27 28 25 nan nan nan nan nan nan nan nan nan nan nan nan nan nan nan nan nan nan nan nan nan nan nan nan nan nan nan nan nan nan nan nan
nan nan nan nan nan 31 21 22 16 18 22 nan nan nan nan nan nan nan nan nan nan nan nan nan nan nan nan nan nan nan nan nan nan nan nan nan nan nan nan nan nan nan nan
Wind_Direction
290 290 285 282 288 292 292 284 277 273 268 268 264 260 254 249 241 229 221 219 228 224 231 236 239 243 250 254 258 260 263 265 264 268 268 271 281 297 297 306 308 312 311
289 285 288 289 292 294 292 282 278 272 265 251 249 256 256 251 237 221 222 230 235 236 245 253 246 251 256 272 284 282 252 271 268 264 238 270 284 292 297 303 302 305 305
297 301 293 290 286 284 276 276 275 272 267 261 247 242 252 252 240 230 228 237 243 240 240 243 250 257 269 282 274 278 299 295 286 250 226 254 279 282 292 299 297 301 300
305 313 301 296 293 287 279 283 281 282 278 274 255 241 234 241 240 234 232 231 237 245 246 253 263 273 273 278 280 289 298 294 292 231 244 257 275 284 284 283 289 295 299
277 274 278 283 282 281 285 284 286 286 286 284 287 285 252 227 239 233 230 239 243 223 232 253 260 255 nan nan nan nan 277 nan nan nan nan 269 281 283 288 286 288 284 290
246 241 246 265 277 272 302 291 289 271 275 279 292 nan nan nan nan nan nan nan nan nan nan nan nan nan nan nan nan nan nan nan nan nan nan nan 270 283 285 284 286 289 290
289 292 nan nan nan 256 291 301 307 nan nan nan 285 nan nan nan nan nan nan nan nan nan nan nan nan nan nan nan nan nan nan nan nan nan nan nan 271 275 274 276 281 284 288
282 288 314 325 318 nan 303 nan nan nan nan nan nan nan nan nan nan nan nan nan nan nan nan nan nan nan nan nan nan nan nan nan nan nan 270 274 278 275 279 277 272 277 286
288 291 290 297 295 299 nan nan nan nan nan nan nan nan nan nan nan nan nan nan nan nan nan nan nan nan nan nan nan nan nan nan nan nan nan nan nan nan nan 275 nan nan nan
nan nan nan nan nan nan nan 293 nan nan nan nan nan nan nan nan nan nan nan nan nan nan nan nan nan nan nan nan nan nan nan nan nan nan 262 nan nan nan nan 282 275 nan nan
nan nan nan nan nan nan nan nan nan nan nan nan nan nan nan nan nan nan nan nan nan nan nan nan nan nan nan nan nan nan nan nan nan nan nan nan nan nan nan 285 281 281 282
nan nan nan nan nan nan nan nan nan nan nan nan nan nan nan nan nan nan nan nan nan nan nan nan nan nan nan nan nan nan nan nan nan nan nan nan nan nan nan nan 277 275 284
nan nan nan nan nan nan nan nan nan nan nan nan nan nan nan nan nan nan nan nan nan nan nan nan nan nan nan nan nan nan nan nan nan nan nan nan nan nan nan 276 278 286 287
nan nan nan nan nan nan nan nan nan nan nan nan nan nan nan nan nan nan nan nan nan nan nan nan nan nan nan nan nan nan nan nan nan nan nan nan nan nan nan nan nan nan nan
nan nan nan nan nan nan nan nan nan nan nan nan nan nan nan nan nan nan nan nan nan nan nan nan nan nan nan nan nan nan nan nan nan nan nan nan nan nan nan nan nan nan 280
nan nan nan nan nan nan nan nan nan nan nan nan nan nan nan nan nan nan nan nan nan nan nan nan nan nan nan nan nan nan nan nan nan nan nan nan nan nan nan nan nan 270 nan
nan nan nan nan nan nan nan nan nan nan nan nan nan nan nan nan nan nan nan nan nan nan nan nan nan nan nan nan nan nan nan nan nan nan nan nan nan nan nan nan nan 267 268
nan nan nan nan nan nan nan nan nan nan nan nan nan nan nan nan nan nan nan nan nan nan nan nan nan nan nan nan nan nan nan nan nan nan nan nan nan nan 260 264 269 266 259
nan nan nan nan nan nan nan nan nan nan nan nan nan nan nan nan nan nan nan nan nan nan nan nan nan nan nan nan nan nan nan nan nan nan nan nan nan nan nan nan 254 nan nan
nan nan nan nan nan nan nan nan nan nan nan nan nan nan nan nan nan nan nan nan nan nan nan nan nan nan nan nan nan nan nan nan nan nan nan nan nan nan nan nan nan 258 256
nan nan nan nan nan nan nan nan nan nan nan nan nan nan nan nan nan nan nan nan nan nan nan nan nan nan nan nan nan nan nan nan nan nan nan nan nan nan nan nan nan 254 251
nan nan nan nan nan nan nan nan nan nan nan nan 286 nan nan nan nan nan nan nan nan nan nan nan nan nan nan nan nan nan nan nan nan nan nan nan nan nan nan nan nan nan nan
nan nan nan nan 296 nan nan nan nan nan 283 282 286 nan nan nan nan nan nan nan nan nan nan nan nan nan nan nan nan nan nan nan nan nan nan nan nan nan nan nan nan nan nan
nan nan nan nan nan nan 293 nan 289 nan 286 284 nan nan nan nan nan nan nan nan nan nan nan nan nan nan nan nan nan nan nan nan nan nan nan nan nan nan nan nan nan nan nan
nan nan nan nan nan 301 292 nan 281 282 284 nan nan nan nan nan nan nan nan nan nan nan nan nan nan nan nan nan nan nan nan nan nan nan nan nan nan nan nan nan nan nan nan
nan nan nan nan nan 318 288 261 243 264 273 nan nan nan nan nan nan nan nan nan nan nan nan nan nan nan nan nan nan nan nan nan nan nan nan nan nan nan nan nan nan nan nan